TimeAKST,TemperatureF,Dew PointF,Humidity,Sea Level PressureIn,VisibilityMPH,Wind Direction,Wind SpeedMPH,Gust SpeedMPH,PrecipitationIn,Events,Conditions,WindDirDegrees,DateUTC
12:58 AM,21.0,-9999,N/A,29.55,10.0,Calm,Calm,-,N/A,,Clear,0,2014-01-28 09:58:00
1:58 AM,21.9,-9999,N/A,29.56,10.0,Variable,5.8,-,N/A,,Clear,0,2014-01-28 10:58:00
2:16 AM,44.6,35.6,71,29.53,10.0,South,49.5,62.1,N/A,,Clear,170,2014-01-28 11:16:00
2:58 AM,43.0,34.0,71,29.53,10.0,SSE,54.1,62.1,N/A,,Clear,160,2014-01-28 11:58:00
3:58 AM,41.0,35.1,79,29.59,10.0,SSE,33.4,47.2,N/A,,Clear,160,2014-01-28 12:58:00
4:58 AM,39.0,36.0,89,29.61,10.0,SSE,41.4,49.5,N/A,,Clear,160,2014-01-28 13:58:00
5:58 AM,39.0,37.9,96,29.66,10.0,South,31.1,40.3,N/A,,Overcast,170,2014-01-28 14:58:00
6:58 AM,39.9,37.9,93,29.67,10.0,South,31.1,38.0,N/A,,Partly Cloudy,180,2014-01-28 15:58:00
7:58 AM,39.0,37.0,93,29.67,10.0,SSE,31.1,39.1,N/A,,Clear,160,2014-01-28 16:58:00
8:58 AM,42.1,37.0,82,29.70,10.0,SE,23.0,-,N/A,,Clear,140,2014-01-28 17:58:00
9:58 AM,39.9,35.1,83,29.73,10.0,SE,28.8,-,N/A,,Partly Cloudy,130,2014-01-28 18:58:00
10:58 AM,39.0,36.0,89,29.75,10.0,ESE,20.7,-,N/A,,Scattered Clouds,110,2014-01-28 19:58:00
11:58 AM,41.0,35.1,79,29.75,10.0,SE,25.3,-,N/A,,Overcast,140,2014-01-28 20:58:00
12:58 PM,41.0,35.1,79,29.76,10.0,SE,26.5,-,N/A,,Overcast,140,2014-01-28 21:58:00
1:58 PM,42.1,33.1,70,29.78,10.0,SSE,25.3,-,N/A,,Partly Cloudy,150,2014-01-28 22:58:00
2:58 PM,39.9,30.9,70,29.76,10.0,SE,25.3,29.9,N/A,,Overcast,140,2014-01-28 23:58:00
3:58 PM,39.9,30.0,68,29.76,10.0,SSE,25.3,31.1,N/A,,Clear,150,2014-01-29 00:58:00
4:58 PM,39.0,30.0,70,29.77,10.0,SE,24.2,33.4,N/A,,Clear,140,2014-01-29 01:58:00
5:58 PM,39.9,30.0,68,29.77,10.0,SE,26.5,31.1,N/A,,Clear,130,2014-01-29 02:58:00
6:58 PM,41.0,28.9,62,29.77,10.0,SSE,28.8,33.4,N/A,,Clear,150,2014-01-29 03:58:00
7:58 PM,39.9,28.9,65,29.77,10.0,SE,25.3,-,N/A,,Clear,140,2014-01-29 04:58:00
8:58 PM,39.9,28.9,65,29.77,10.0,SE,25.3,-,N/A,,Clear,140,2014-01-29 05:58:00
9:58 PM,39.9,28.9,65,29.77,10.0,SE,27.6,-,N/A,,Clear,140,2014-01-29 06:58:00
10:58 PM,41.0,28.0,60,29.76,10.0,SE,31.1,36.8,N/A,,Clear,140,2014-01-29 07:58:00
11:58 PM,41.0,28.0,60,29.77,10.0,SE,31.1,35.7,N/A,,Clear,140,2014-01-29 08:58:00